Wetterdaten: Montag, 16.11.2015
Datum Zeit Temp. A. Feuchte A. Luftdruck Regen Wind Richtung Richtung Sonnenschein ET UV Solar Taupunkt Windchill Windben Empfang
16.11.2015 00:00 15,1 C 59 % 1015,9 hPa 0,0 l/m 1,0 km/h (0 Bft) W 269 0 min 0,000 mm 0,0 UV-I 0 W/m 7,1 C 15,1 C 8,0 km/h (2 Bft) 99,17 %
16.11.2015 00:05 14,4 C 63 % 1015,9 hPa 0,0 l/m 2,7 km/h (1 Bft) N-NO 33 0 min 0,000 mm 0,0 UV-I 0 W/m 7,4 C 14,4 C 11,3 km/h (2 Bft) 99,11 %
16.11.2015 00:10 14,3 C 63 % 1016,0 hPa 0,0 l/m 2,7 km/h (1 Bft) W-NW 285 0 min 0,000 mm 0,0 UV-I 0 W/m 7,4 C 14,3 C 8,0 km/h (2 Bft) 99,19 %
16.11.2015 00:15 14,1 C 63 % 1016,1 hPa 0,0 l/m 2,7 km/h (1 Bft) NW 315 0 min 0,000 mm 0,0 UV-I 0 W/m 7,2 C 14,1 C 8,0 km/h (2 Bft) 98,17 %
16.11.2015 00:20 13,9 C 65 % 1016,1 hPa 0,0 l/m 2,0 km/h (1 Bft) W 279 0 min 0,000 mm 0,0 UV-I 0 W/m 7,4 C 13,9 C 4,8 km/h (1 Bft) 100,00 %
16.11.2015 00:25 13,9 C 64 % 1015,9 hPa 0,0 l/m 2,6 km/h (1 Bft) NW 304 0 min 0,000 mm 0,0 UV-I 0 W/m 7,2 C 13,9 C 4,8 km/h (1 Bft) 100,00 %
16.11.2015 00:30 14,3 C 61 % 1016,0 hPa 0,0 l/m 6,6 km/h (2 Bft) W 269 0 min 0,000 mm 0,0 UV-I 0 W/m 6,9 C 14,2 C 16,1 km/h (3 Bft) 99,11 %
16.11.2015 00:35 14,4 C 61 % 1016,2 hPa 0,0 l/m 4,9 km/h (1 Bft) W-SW 257 0 min 0,000 mm 0,0 UV-I 0 W/m 7,0 C 14,4 C 12,9 km/h (3 Bft) 100,00 %
16.11.2015 00:40 14,0 C 66 % 1016,3 hPa 0,0 l/m 2,4 km/h (1 Bft) W 261 0 min 0,000 mm 0,0 UV-I 0 W/m 7,7 C 14,0 C 8,0 km/h (2 Bft) 99,13 %
16.11.2015 00:45 13,8 C 67 % 1016,3 hPa 0,0 l/m 3,8 km/h (1 Bft) W-SW 239 0 min 0,000 mm 0,0 UV-I 0 W/m 7,8 C 13,8 C 12,9 km/h (3 Bft) 99,11 %
16.11.2015 00:50 13,4 C 72 % 1016,3 hPa 0,0 l/m 4,1 km/h (1 Bft) W 274 0 min 0,000 mm 0,0 UV-I 0 W/m 8,5 C 13,4 C 17,7 km/h (3 Bft) 99,19 %
16.11.2015 00:55 12,8 C 74 % 1016,3 hPa 0,0 l/m 1,7 km/h (1 Bft) N 355 0 min 0,000 mm 0,0 UV-I 0 W/m 8,3 C 12,8 C 9,7 km/h (2 Bft) 100,00 %
16.11.2015 01:00 12,3 C 77 % 1016,1 hPa 0,2 l/m 1,1 km/h (1 Bft) W-SW 258 0 min 0,025 mm 0,0 UV-I 0 W/m 8,4 C 12,3 C 4,8 km/h (1 Bft) 99,19 %
16.11.2015 01:05 12,2 C 79 % 1016,1 hPa 0,0 l/m 2,2 km/h (1 Bft) W 273 0 min 0,000 mm 0,0 UV-I 0 W/m 8,7 C 12,2 C 6,4 km/h (2 Bft) 100,00 %
16.11.2015 01:10 12,1 C 80 % 1016,1 hPa 0,0 l/m 2,1 km/h (1 Bft) NW 306 0 min 0,000 mm 0,0 UV-I 0 W/m 8,8 C 12,1 C 4,8 km/h (1 Bft) 100,00 %
16.11.2015 01:15 11,8 C 82 % 1016,1 hPa 0,0 l/m 1,3 km/h (1 Bft) W 278 0 min 0,000 mm 0,0 UV-I 0 W/m 8,8 C 11,8 C 4,8 km/h (1 Bft) 100,00 %
16.11.2015 01:20 11,7 C 83 % 1016,2 hPa 0,0 l/m 0,7 km/h (0 Bft) W 277 0 min 0,000 mm 0,0 UV-I 0 W/m 8,9 C 11,7 C 3,2 km/h (1 Bft) 100,00 %
16.11.2015 01:25 11,6 C 84 % 1016,3 hPa 0,0 l/m 0,1 km/h (0 Bft) W 278 0 min 0,000 mm 0,0 UV-I 0 W/m 9,0 C 11,6 C 1,6 km/h (1 Bft) 99,11 %
16.11.2015 01:30 11,5 C 84 % 1016,5 hPa 0,0 l/m 0,5 km/h (0 Bft) N-NW 333 0 min 0,000 mm 0,0 UV-I 0 W/m 8,9 C 11,5 C 3,2 km/h (1 Bft) 100,00 %
16.11.2015 01:35 11,4 C 84 % 1016,5 hPa 0,0 l/m 0,2 km/h (0 Bft) N-NW 333 0 min 0,000 mm 0,0 UV-I 0 W/m 8,8 C 11,4 C 1,6 km/h (1 Bft) 98,17 %
16.11.2015 01:40 11,5 C 83 % 1016,5 hPa 0,0 l/m 1,1 km/h (1 Bft) W 274 0 min 0,000 mm 0,0 UV-I 0 W/m 8,7 C 11,5 C 3,2 km/h (1 Bft) 98,41 %
16.11.2015 01:45 11,5 C 83 % 1016,5 hPa 0,0 l/m 0,1 km/h (0 Bft) W 274 0 min 0,000 mm 0,0 UV-I 0 W/m 8,7 C 11,5 C 1,6 km/h (1 Bft) 99,15 %
16.11.2015 01:50 11,7 C 81 % 1016,5 hPa 0,0 l/m 1,9 km/h (1 Bft) W 265 0 min 0,000 mm 0,0 UV-I 0 W/m 8,5 C 11,7 C 6,4 km/h (2 Bft) 97,39 %
16.11.2015 01:55 11,8 C 81 % 1016,5 hPa 0,0 l/m 1,7 km/h (1 Bft) W-SW 249 0 min 0,000 mm 0,0 UV-I 0 W/m 8,6 C 11,8 C 6,4 km/h (2 Bft) 96,67 %
16.11.2015 02:00 11,9 C 80 % 1016,5 hPa 0,0 l/m 1,8 km/h (1 Bft) W-NW 292 0 min 0,000 mm 0,0 UV-I 0 W/m 8,6 C 11,9 C 3,2 km/h (1 Bft) 98,31 %
16.11.2015 02:05 12,0 C 79 % 1016,4 hPa 0,0 l/m 1,2 km/h (1 Bft) W-NW 288 0 min 0,000 mm 0,0 UV-I 0 W/m 8,5 C 12,0 C 3,2 km/h (1 Bft) 97,32 %
16.11.2015 02:10 12,1 C 78 % 1016,4 hPa 0,0 l/m 2,3 km/h (1 Bft) W 268 0 min 0,000 mm 0,0 UV-I 0 W/m 8,4 C 12,1 C 6,4 km/h (2 Bft) 99,12 %
16.11.2015 02:15 12,3 C 77 % 1016,4 hPa 0,0 l/m 2,2 km/h (1 Bft) W 261 0 min 0,000 mm 0,0 UV-I 0 W/m 8,4 C 12,3 C 4,8 km/h (1 Bft) 99,19 %
16.11.2015 02:20 12,3 C 77 % 1016,5 hPa 0,0 l/m 1,8 km/h (1 Bft) W-NW 285 0 min 0,000 mm 0,0 UV-I 0 W/m 8,4 C 12,3 C 6,4 km/h (2 Bft) 99,08 %
16.11.2015 02:25 12,2 C 79 % 1016,4 hPa 0,0 l/m 0,8 km/h (0 Bft) W-NW 285 0 min 0,000 mm 0,0 UV-I 0 W/m 8,7 C 12,2 C 1,6 km/h (1 Bft) 100,00 %
16.11.2015 02:30 11,9 C 80 % 1016,4 hPa 0,0 l/m 0,3 km/h (0 Bft) W-NW 285 0 min 0,000 mm 0,0 UV-I 0 W/m 8,6 C 11,9 C 1,6 km/h (1 Bft) 98,35 %
16.11.2015 02:35 11,7 C 81 % 1016,4 hPa 0,0 l/m 0,3 km/h (0 Bft) W-NW 285 0 min 0,000 mm 0,0 UV-I 0 W/m 8,5 C 11,7 C 1,6 km/h (1 Bft) 100,00 %
16.11.2015 02:40 11,9 C 78 % 1016,3 hPa 0,0 l/m 2,0 km/h (1 Bft) W 278 0 min 0,000 mm 0,0 UV-I 0 W/m 8,2 C 11,9 C 4,8 km/h (1 Bft) 99,17 %
16.11.2015 02:45 12,3 C 75 % 1016,2 hPa 0,0 l/m 2,8 km/h (1 Bft) W-SW 242 0 min 0,000 mm 0,0 UV-I 0 W/m 8,0 C 12,3 C 4,8 km/h (1 Bft) 100,00 %
16.11.2015 02:50 12,4 C 75 % 1016,2 hPa 0,0 l/m 3,3 km/h (1 Bft) W 264 0 min 0,000 mm 0,0 UV-I 0 W/m 8,1 C 12,4 C 6,4 km/h (2 Bft) 99,19 %
16.11.2015 02:55 12,7 C 73 % 1016,2 hPa 0,0 l/m 5,7 km/h (1 Bft) W-SW 257 0 min 0,000 mm 0,0 UV-I 0 W/m 8,0 C 12,7 C 12,9 km/h (3 Bft) 100,00 %
16.11.2015 03:00 12,8 C 71 % 1016,2 hPa 0,0 l/m 5,1 km/h (1 Bft) W-SW 244 0 min 0,000 mm 0,0 UV-I 0 W/m 7,7 C 12,8 C 9,7 km/h (2 Bft) 99,11 %
16.11.2015 03:05 13,1 C 69 % 1016,2 hPa 0,0 l/m 7,0 km/h (2 Bft) W 281 0 min 0,000 mm 0,0 UV-I 0 W/m 7,5 C 12,7 C 12,9 km/h (3 Bft) 97,62 %
16.11.2015 03:10 13,3 C 68 % 1016,1 hPa 0,0 l/m 6,7 km/h (2 Bft) W-SW 243 0 min 0,000 mm 0,0 UV-I 0 W/m 7,5 C 13,1 C 14,5 km/h (3 Bft) 99,11 %
16.11.2015 03:15 13,4 C 67 % 1016,1 hPa 0,0 l/m 6,8 km/h (2 Bft) W-NW 298 0 min 0,000 mm 0,0 UV-I 0 W/m 7,4 C 13,2 C 12,9 km/h (3 Bft) 100,00 %
16.11.2015 03:20 13,6 C 66 % 1016,1 hPa 0,0 l/m 9,6 km/h (2 Bft) W 265 0 min 0,000 mm 0,0 UV-I 0 W/m 7,4 C 11,8 C 17,7 km/h (3 Bft) 100,00 %
16.11.2015 03:25 13,8 C 65 % 1016,1 hPa 0,0 l/m 10,4 km/h (2 Bft) W-NW 292 0 min 0,000 mm 0,0 UV-I 0 W/m 7,3 C 11,6 C 20,9 km/h (4 Bft) 99,11 %
16.11.2015 03:30 13,8 C 65 % 1016,2 hPa 0,0 l/m 8,3 km/h (2 Bft) W 270 0 min 0,000 mm 0,0 UV-I 0 W/m 7,3 C 12,7 C 16,1 km/h (3 Bft) 97,62 %
16.11.2015 03:35 13,8 C 64 % 1016,2 hPa 0,0 l/m 10,0 km/h (2 Bft) W 276 0 min 0,000 mm 0,0 UV-I 0 W/m 7,1 C 11,8 C 19,3 km/h (3 Bft) 100,00 %
16.11.2015 03:40 13,8 C 64 % 1016,2 hPa 0,0 l/m 8,2 km/h (2 Bft) W-NW 294 0 min 0,000 mm 0,0 UV-I 0 W/m 7,1 C 12,7 C 16,1 km/h (3 Bft) 100,00 %
16.11.2015 03:45 13,8 C 65 % 1016,2 hPa 0,0 l/m 7,8 km/h (2 Bft) W 271 0 min 0,000 mm 0,0 UV-I 0 W/m 7,3 C 13,0 C 16,1 km/h (3 Bft) 100,00 %
16.11.2015 03:50 13,7 C 64 % 1016,1 hPa 0,0 l/m 9,1 km/h (2 Bft) W 263 0 min 0,000 mm 0,0 UV-I 0 W/m 7,0 C 12,1 C 19,3 km/h (3 Bft) 100,00 %
16.11.2015 03:55 13,7 C 65 % 1016,1 hPa 0,0 l/m 9,3 km/h (2 Bft) W 280 0 min 0,000 mm 0,0 UV-I 0 W/m 7,2 C 12,0 C 16,1 km/h (3 Bft) 99,15 %
16.11.2015 04:00 13,7 C 65 % 1016,2 hPa 0,0 l/m 7,7 km/h (2 Bft) W 273 0 min 0,051 mm 0,0 UV-I 0 W/m 7,2 C 12,9 C 16,1 km/h (3 Bft) 99,13 %
16.11.2015 04:05 13,6 C 65 % 1016,3 hPa 0,0 l/m 6,9 km/h (2 Bft) W 259 0 min 0,000 mm 0,0 UV-I 0 W/m 7,1 C 13,3 C 16,1 km/h (3 Bft) 100,00 %
16.11.2015 04:10 13,6 C 65 % 1016,4 hPa 0,0 l/m 7,4 km/h (2 Bft) W-NW 290 0 min 0,000 mm 0,0 UV-I 0 W/m 7,1 C 13,0 C 14,5 km/h (3 Bft) 100,00 %
16.11.2015 04:15 13,5 C 65 % 1016,3 hPa 0,0 l/m 6,4 km/h (2 Bft) W 270 0 min 0,000 mm 0,0 UV-I 0 W/m 7,1 C 13,5 C 14,5 km/h (3 Bft) 100,00 %
16.11.2015 04:20 13,4 C 65 % 1016,3 hPa 0,0 l/m 5,2 km/h (1 Bft) W-NW 294 0 min 0,000 mm 0,0 UV-I 0 W/m 7,0 C 13,4 C 9,7 km/h (2 Bft) 98,37 %
16.11.2015 04:25 13,4 C 66 % 1016,3 hPa 0,0 l/m 6,8 km/h (2 Bft) W-NW 283 0 min 0,000 mm 0,0 UV-I 0 W/m 7,2 C 13,2 C 12,9 km/h (3 Bft) 98,11 %
16.11.2015 04:30 13,4 C 66 % 1016,3 hPa 0,0 l/m 7,8 km/h (2 Bft) W 281 0 min 0,000 mm 0,0 UV-I 0 W/m 7,2 C 12,5 C 12,9 km/h (3 Bft) 100,00 %
16.11.2015 04:35 13,4 C 66 % 1016,3 hPa 0,0 l/m 7,9 km/h (2 Bft) W 277 0 min 0,000 mm 0,0 UV-I 0 W/m 7,2 C 12,5 C 14,5 km/h (3 Bft) 98,31 %
16.11.2015 04:40 13,4 C 65 % 1016,3 hPa 0,0 l/m 7,4 km/h (2 Bft) W-NW 289 0 min 0,000 mm 0,0 UV-I 0 W/m 7,0 C 12,8 C 12,9 km/h (3 Bft) 98,29 %
16.11.2015 04:45 13,4 C 65 % 1016,3 hPa 0,0 l/m 6,9 km/h (2 Bft) W 267 0 min 0,000 mm 0,0 UV-I 0 W/m 7,0 C 13,1 C 16,1 km/h (3 Bft) 98,31 %
16.11.2015 04:50 13,4 C 66 % 1016,2 hPa 0,0 l/m 6,5 km/h (2 Bft) W 261 0 min 0,000 mm 0,0 UV-I 0 W/m 7,2 C 13,4 C 14,5 km/h (3 Bft) 99,15 %
16.11.2015 04:55 13,3 C 67 % 1016,3 hPa 0,0 l/m 6,2 km/h (2 Bft) W 259 0 min 0,000 mm 0,0 UV-I 0 W/m 7,3 C 13,3 C 16,1 km/h (3 Bft) 100,00 %
16.11.2015 05:00 13,3 C 66 % 1016,2 hPa 0,0 l/m 8,1 km/h (2 Bft) W 265 0 min 0,026 mm 0,0 UV-I 0 W/m 7,1 C 12,3 C 14,5 km/h (3 Bft) 96,69 %
16.11.2015 05:05 13,2 C 67 % 1016,2 hPa 0,0 l/m 7,1 km/h (2 Bft) W 276 0 min 0,000 mm 0,0 UV-I 0 W/m 7,2 C 12,8 C 16,1 km/h (3 Bft) 99,15 %
16.11.2015 05:10 13,0 C 67 % 1016,3 hPa 0,0 l/m 4,7 km/h (1 Bft) W-NW 290 0 min 0,000 mm 0,0 UV-I 0 W/m 7,0 C 13,0 C 9,7 km/h (2 Bft) 99,15 %
16.11.2015 05:15 12,8 C 68 % 1016,4 hPa 0,0 l/m 3,7 km/h (1 Bft) W 273 0 min 0,000 mm 0,0 UV-I 0 W/m 7,0 C 12,8 C 9,7 km/h (2 Bft) 99,17 %
16.11.2015 05:20 12,7 C 69 % 1016,4 hPa 0,0 l/m 3,3 km/h (1 Bft) W 279 0 min 0,000 mm 0,0 UV-I 0 W/m 7,2 C 12,7 C 6,4 km/h (2 Bft) 98,11 %
16.11.2015 05:25 12,5 C 69 % 1016,4 hPa 0,0 l/m 3,7 km/h (1 Bft) W 279 0 min 0,000 mm 0,0 UV-I 0 W/m 7,0 C 12,5 C 9,7 km/h (2 Bft) 99,17 %
16.11.2015 05:30 12,2 C 70 % 1016,4 hPa 0,0 l/m 2,2 km/h (1 Bft) W-SW 253 0 min 0,000 mm 0,0 UV-I 0 W/m 6,9 C 12,2 C 9,7 km/h (2 Bft) 95,73 %
16.11.2015 05:35 12,1 C 71 % 1016,5 hPa 0,0 l/m 3,1 km/h (1 Bft) NW 306 0 min 0,000 mm 0,0 UV-I 0 W/m 7,0 C 12,1 C 9,7 km/h (2 Bft) 98,31 %
16.11.2015 05:40 11,8 C 72 % 1016,4 hPa 0,0 l/m 2,1 km/h (1 Bft) W-NW 282 0 min 0,000 mm 0,0 UV-I 0 W/m 6,9 C 11,8 C 6,4 km/h (2 Bft) 99,17 %
16.11.2015 05:45 11,8 C 72 % 1016,5 hPa 0,0 l/m 2,7 km/h (1 Bft) W-NW 294 0 min 0,000 mm 0,0 UV-I 0 W/m 6,9 C 11,8 C 6,4 km/h (2 Bft) 99,07 %
16.11.2015 05:50 11,8 C 72 % 1016,4 hPa 0,0 l/m 3,8 km/h (1 Bft) W 273 0 min 0,000 mm 0,0 UV-I 0 W/m 6,9 C 11,8 C 6,4 km/h (2 Bft) 100,00 %
16.11.2015 05:55 11,8 C 72 % 1016,5 hPa 0,0 l/m 4,8 km/h (1 Bft) W-NW 286 0 min 0,000 mm 0,0 UV-I 0 W/m 6,9 C 11,8 C 11,3 km/h (2 Bft) 100,00 %
16.11.2015 06:00 11,9 C 71 % 1016,5 hPa 0,0 l/m 4,9 km/h (1 Bft) W 264 0 min 0,025 mm 0,0 UV-I 0 W/m 6,8 C 11,9 C 9,7 km/h (2 Bft) 99,19 %
16.11.2015 06:05 11,9 C 71 % 1016,6 hPa 0,0 l/m 5,8 km/h (2 Bft) W-NW 283 0 min 0,000 mm 0,0 UV-I 0 W/m 6,8 C 11,9 C 11,3 km/h (2 Bft) 98,11 %
16.11.2015 06:10 11,9 C 71 % 1016,7 hPa 0,0 l/m 6,9 km/h (2 Bft) W 259 0 min 0,000 mm 0,0 UV-I 0 W/m 6,8 C 11,6 C 12,9 km/h (3 Bft) 96,67 %
16.11.2015 06:15 12,0 C 71 % 1016,7 hPa 0,0 l/m 6,7 km/h (2 Bft) W 277 0 min 0,000 mm 0,0 UV-I 0 W/m 6,9 C 11,8 C 11,3 km/h (2 Bft) 97,52 %
16.11.2015 06:20 11,9 C 71 % 1016,7 hPa 0,0 l/m 6,5 km/h (2 Bft) W-NW 282 0 min 0,000 mm 0,0 UV-I 0 W/m 6,8 C 11,9 C 12,9 km/h (3 Bft) 100,00 %
16.11.2015 06:25 11,8 C 71 % 1016,8 hPa 0,0 l/m 5,0 km/h (1 Bft) NW 309 0 min 0,000 mm 0,0 UV-I 0 W/m 6,7 C 11,8 C 11,3 km/h (2 Bft) 99,15 %
16.11.2015 06:30 11,6 C 72 % 1016,9 hPa 0,0 l/m 4,0 km/h (1 Bft) W-NW 294 0 min 0,000 mm 0,0 UV-I 0 W/m 6,7 C 11,6 C 9,7 km/h (2 Bft) 99,15 %
16.11.2015 06:35 11,4 C 73 % 1017,0 hPa 0,0 l/m 3,5 km/h (1 Bft) W 277 0 min 0,000 mm 0,0 UV-I 0 W/m 6,7 C 11,4 C 6,4 km/h (2 Bft) 98,29 %
16.11.2015 06:40 11,2 C 74 % 1017,0 hPa 0,0 l/m 2,1 km/h (1 Bft) W 260 0 min 0,000 mm 0,0 UV-I 0 W/m 6,7 C 11,2 C 4,8 km/h (1 Bft) 99,15 %
16.11.2015 06:45 11,1 C 74 % 1017,1 hPa 0,0 l/m 2,7 km/h (1 Bft) W 273 0 min 0,000 mm 0,0 UV-I 0 W/m 6,6 C 11,1 C 4,8 km/h (1 Bft) 99,08 %
16.11.2015 06:50 10,9 C 75 % 1017,0 hPa 0,0 l/m 2,2 km/h (1 Bft) W 273 0 min 0,000 mm 0,0 UV-I 0 W/m 6,6 C 10,9 C 4,8 km/h (1 Bft) 100,00 %
16.11.2015 06:55 10,8 C 75 % 1017,1 hPa 0,0 l/m 2,6 km/h (1 Bft) W 263 0 min 0,000 mm 0,0 UV-I 0 W/m 6,5 C 10,8 C 4,8 km/h (1 Bft) 99,15 %
16.11.2015 07:00 10,8 C 75 % 1017,2 hPa 0,0 l/m 3,0 km/h (1 Bft) W-SW 255 0 min 0,025 mm 0,0 UV-I 0 W/m 6,5 C 10,8 C 4,8 km/h (1 Bft) 98,31 %
16.11.2015 07:05 10,7 C 75 % 1017,2 hPa 0,0 l/m 3,3 km/h (1 Bft) W 267 0 min 0,000 mm 0,0 UV-I 0 W/m 6,5 C 10,7 C 6,4 km/h (2 Bft) 99,15 %
16.11.2015 07:10 10,7 C 75 % 1017,2 hPa 0,0 l/m 4,3 km/h (1 Bft) W-NW 288 0 min 0,000 mm 0,0 UV-I 0 W/m 6,5 C 10,7 C 9,7 km/h (2 Bft) 100,00 %
16.11.2015 07:15 10,8 C 75 % 1017,2 hPa 0,0 l/m 6,3 km/h (2 Bft) W 269 0 min 0,000 mm 0,0 UV-I 0 W/m 6,5 C 10,8 C 12,9 km/h (3 Bft) 98,29 %
16.11.2015 07:20 11,1 C 74 % 1017,1 hPa 0,0 l/m 6,6 km/h (2 Bft) W 270 0 min 0,000 mm 0,0 UV-I 4 W/m 6,6 C 11,0 C 12,9 km/h (3 Bft) 98,31 %
16.11.2015 07:25 11,2 C 73 % 1017,1 hPa 0,0 l/m 6,8 km/h (2 Bft) W 275 0 min 0,000 mm 0,0 UV-I 5 W/m 6,5 C 10,9 C 11,3 km/h (2 Bft) 100,00 %
16.11.2015 07:30 11,2 C 74 % 1017,1 hPa 0,0 l/m 6,4 km/h (2 Bft) W-NW 295 0 min 0,000 mm 0,0 UV-I 6 W/m 6,7 C 11,2 C 12,9 km/h (3 Bft) 99,07 %
16.11.2015 07:35 11,2 C 73 % 1017,2 hPa 0,0 l/m 6,9 km/h (2 Bft) W-SW 257 0 min 0,000 mm 0,0 UV-I 7 W/m 6,5 C 10,9 C 14,5 km/h (3 Bft) 96,61 %
16.11.2015 07:40 11,3 C 73 % 1017,3 hPa 0,0 l/m 8,0 km/h (2 Bft) W 276 0 min 0,000 mm 0,0 UV-I 9 W/m 6,6 C 10,2 C 16,1 km/h (3 Bft) 100,00 %
16.11.2015 07:45 11,4 C 73 % 1017,4 hPa 0,0 l/m 7,7 km/h (2 Bft) W 267 0 min 0,000 mm 0,0 UV-I 10 W/m 6,7 C 10,5 C 14,5 km/h (3 Bft) 98,29 %
16.11.2015 07:50 11,3 C 74 % 1017,4 hPa 0,0 l/m 2,4 km/h (1 Bft) W 265 0 min 0,000 mm 0,0 UV-I 12 W/m 6,8 C 11,3 C 3,2 km/h (1 Bft) 97,73 %
16.11.2015 07:55 11,1 C 74 % 1017,4 hPa 0,0 l/m 4,9 km/h (1 Bft) W-NW 282 0 min 0,000 mm 0,0 UV-I 12 W/m 6,6 C 11,1 C 9,7 km/h (2 Bft) 99,13 %
16.11.2015 08:00 11,1 C 74 % 1017,4 hPa 0,0 l/m 4,2 km/h (1 Bft) W 265 0 min 0,026 mm 0,0 UV-I 16 W/m 6,6 C 11,1 C 9,7 km/h (2 Bft) 100,00 %
16.11.2015 08:05 11,1 C 74 % 1017,4 hPa 0,0 l/m 4,6 km/h (1 Bft) W-NW 290 0 min 0,000 mm 0,0 UV-I 21 W/m 6,6 C 11,1 C 11,3 km/h (2 Bft) 99,17 %
16.11.2015 08:10 11,2 C 74 % 1017,4 hPa 0,0 l/m 4,1 km/h (1 Bft) W-NW 292 0 min 0,000 mm 0,0 UV-I 29 W/m 6,7 C 11,2 C 9,7 km/h (2 Bft) 100,00 %
16.11.2015 08:15 11,3 C 75 % 1017,4 hPa 0,0 l/m 5,3 km/h (1 Bft) W 279 0 min 0,000 mm 0,0 UV-I 49 W/m 7,0 C 11,3 C 12,9 km/h (3 Bft) 98,39 %
16.11.2015 08:20 11,6 C 74 % 1017,4 hPa 0,0 l/m 5,3 km/h (1 Bft) W 268 0 min 0,000 mm 0,0 UV-I 76 W/m 7,1 C 11,6 C 9,7 km/h (2 Bft) 97,37 %
16.11.2015 08:25 11,8 C 73 % 1017,4 hPa 0,0 l/m 5,4 km/h (1 Bft) NW 307 0 min 0,000 mm 0,0 UV-I 81 W/m 7,1 C 11,8 C 9,7 km/h (2 Bft) 99,11 %
16.11.2015 08:30 12,2 C 72 % 1017,5 hPa 0,0 l/m 6,2 km/h (2 Bft) W-NW 301 0 min 0,000 mm 0,0 UV-I 92 W/m 7,3 C 12,2 C 12,9 km/h (3 Bft) 99,21 %
16.11.2015 08:35 12,1 C 72 % 1017,5 hPa 0,0 l/m 4,5 km/h (1 Bft) NW 304 0 min 0,000 mm 0,0 UV-I 66 W/m 7,2 C 12,1 C 12,9 km/h (3 Bft) 99,11 %
16.11.2015 08:40 12,0 C 73 % 1017,6 hPa 0,0 l/m 4,3 km/h (1 Bft) W-NW 290 0 min 0,000 mm 0,0 UV-I 79 W/m 7,3 C 12,0 C 9,7 km/h (2 Bft) 99,17 %
16.11.2015 08:45 12,1 C 73 % 1017,7 hPa 0,0 l/m 4,5 km/h (1 Bft) W 272 5 min 0,000 mm 0,0 UV-I 123 W/m 7,4 C 12,1 C 11,3 km/h (2 Bft) 99,10 %
16.11.2015 08:50 12,1 C 72 % 1017,7 hPa 0,0 l/m 4,6 km/h (1 Bft) W 279 5 min 0,000 mm 0,0 UV-I 150 W/m 7,2 C 12,1 C 11,3 km/h (2 Bft) 97,39 %
16.11.2015 08:55 12,3 C 72 % 1017,7 hPa 0,0 l/m 3,4 km/h (1 Bft) W-NW 284 5 min 0,000 mm 0,0 UV-I 158 W/m 7,4 C 12,3 C 6,4 km/h (2 Bft) 100,00 %
16.11.2015 09:00 12,4 C 72 % 1017,7 hPa 0,0 l/m 3,7 km/h (1 Bft) NW 319 5 min 0,051 mm 0,0 UV-I 176 W/m 7,5 C 12,4 C 6,4 km/h (2 Bft) 99,17 %
16.11.2015 09:05 12,4 C 73 % 1017,8 hPa 0,0 l/m 2,6 km/h (1 Bft) N-NW 331 5 min 0,000 mm 0,0 UV-I 187 W/m 7,7 C 12,4 C 6,4 km/h (2 Bft) 98,17 %
16.11.2015 09:10 12,5 C 72 % 1017,8 hPa 0,0 l/m 1,8 km/h (1 Bft) W-NW 289 5 min 0,000 mm 0,0 UV-I 201 W/m 7,6 C 12,5 C 4,8 km/h (1 Bft) 98,41 %
16.11.2015 09:15 12,5 C 72 % 1017,8 hPa 0,0 l/m 1,9 km/h (1 Bft) W-NW 286 5 min 0,000 mm 0,0 UV-I 205 W/m 7,6 C 12,5 C 4,8 km/h (1 Bft) 99,11 %
16.11.2015 09:20 12,5 C 72 % 1017,7 hPa 0,0 l/m 2,7 km/h (1 Bft) W 279 5 min 0,000 mm 0,2 UV-I 204 W/m 7,6 C 12,5 C 6,4 km/h (2 Bft) 97,52 %
16.11.2015 09:25 12,5 C 74 % 1017,7 hPa 0,0 l/m 1,1 km/h (1 Bft) W-NW 298 5 min 0,000 mm 0,5 UV-I 223 W/m 8,0 C 12,5 C 3,2 km/h (1 Bft) 99,12 %
16.11.2015 09:30 12,6 C 72 % 1017,6 hPa 0,0 l/m 1,4 km/h (1 Bft) NW 308 5 min 0,000 mm 0,5 UV-I 227 W/m 7,7 C 12,6 C 4,8 km/h (1 Bft) 99,11 %
16.11.2015 09:35 12,6 C 74 % 1017,6 hPa 0,0 l/m 1,8 km/h (1 Bft) NW 311 5 min 0,000 mm 0,5 UV-I 232 W/m 8,1 C 12,6 C 3,2 km/h (1 Bft) 98,39 %
16.11.2015 09:40 12,5 C 74 % 1017,6 hPa 0,0 l/m 0,7 km/h (0 Bft) N-NW 336 5 min 0,000 mm 0,6 UV-I 227 W/m 8,0 C 12,5 C 3,2 km/h (1 Bft) 98,33 %
16.11.2015 09:45 12,6 C 74 % 1017,7 hPa 0,0 l/m 0,2 km/h (0 Bft) N-NW 336 5 min 0,000 mm 0,6 UV-I 223 W/m 8,1 C 12,6 C 1,6 km/h (1 Bft) 100,00 %
16.11.2015 09:50 12,6 C 74 % 1017,7 hPa 0,0 l/m 0,5 km/h (0 Bft) N-NW 336 5 min 0,000 mm 0,7 UV-I 243 W/m 8,1 C 12,6 C 1,6 km/h (1 Bft) 98,35 %
16.11.2015 09:55 12,7 C 74 % 1017,7 hPa 0,0 l/m 1,1 km/h (1 Bft) W-NW 302 5 min 0,000 mm 0,7 UV-I 262 W/m 8,2 C 12,7 C 4,8 km/h (1 Bft) 100,00 %
16.11.2015 10:00 12,9 C 74 % 1017,7 hPa 0,0 l/m 0,5 km/h (0 Bft) N-NW 342 5 min 0,127 mm 0,8 UV-I 314 W/m 8,4 C 12,9 C 1,6 km/h (1 Bft) 100,00 %
16.11.2015 10:05 13,1 C 72 % 1017,8 hPa 0,0 l/m 1,7 km/h (1 Bft) W 280 5 min 0,000 mm 0,8 UV-I 321 W/m 8,2 C 13,1 C 3,2 km/h (1 Bft) 100,00 %
16.11.2015 10:10 13,2 C 72 % 1017,7 hPa 0,0 l/m 1,6 km/h (1 Bft) N 355 5 min 0,000 mm 0,9 UV-I 314 W/m 8,3 C 13,2 C 4,8 km/h (1 Bft) 100,00 %
16.11.2015 10:15 13,3 C 72 % 1017,7 hPa 0,0 l/m 1,5 km/h (1 Bft) N-NW 346 5 min 0,000 mm 0,9 UV-I 320 W/m 8,4 C 13,3 C 3,2 km/h (1 Bft) 100,00 %
16.11.2015 10:20 13,3 C 74 % 1017,7 hPa 0,0 l/m 2,2 km/h (1 Bft) NW 323 5 min 0,000 mm 0,9 UV-I 315 W/m 8,8 C 13,3 C 4,8 km/h (1 Bft) 99,17 %
16.11.2015 10:25 13,4 C 72 % 1017,7 hPa 0,0 l/m 2,1 km/h (1 Bft) N-NO 16 5 min 0,000 mm 1,0 UV-I 345 W/m 8,5 C 13,4 C 4,8 km/h (1 Bft) 99,17 %
16.11.2015 10:30 13,6 C 71 % 1017,6 hPa 0,0 l/m 1,1 km/h (1 Bft) NW 306 5 min 0,000 mm 1,0 UV-I 373 W/m 8,4 C 13,6 C 4,8 km/h (1 Bft) 99,11 %
16.11.2015 10:35 13,8 C 73 % 1017,6 hPa 0,0 l/m 1,8 km/h (1 Bft) N-NW 344 5 min 0,000 mm 1,0 UV-I 360 W/m 9,0 C 13,8 C 3,2 km/h (1 Bft) 98,37 %
16.11.2015 10:40 13,9 C 71 % 1017,5 hPa 0,0 l/m 1,3 km/h (1 Bft) W 275 5 min 0,000 mm 1,0 UV-I 363 W/m 8,7 C 13,9 C 3,2 km/h (1 Bft) 99,11 %
16.11.2015 10:45 13,8 C 71 % 1017,6 hPa 0,0 l/m 2,0 km/h (1 Bft) N 11 5 min 0,000 mm 1,0 UV-I 320 W/m 8,6 C 13,8 C 4,8 km/h (1 Bft) 98,17 %
16.11.2015 10:50 13,9 C 71 % 1017,5 hPa 0,0 l/m 1,0 km/h (0 Bft) N-NO 13 5 min 0,000 mm 1,0 UV-I 299 W/m 8,7 C 13,9 C 4,8 km/h (1 Bft) 100,00 %
16.11.2015 10:55 14,1 C 72 % 1017,5 hPa 0,0 l/m 0,5 km/h (0 Bft) N 11 5 min 0,000 mm 1,0 UV-I 288 W/m 9,1 C 14,1 C 1,6 km/h (1 Bft) 99,19 %
16.11.2015 11:00 14,1 C 72 % 1017,5 hPa 0,0 l/m 0,8 km/h (0 Bft) NW 311 5 min 0,177 mm 1,0 UV-I 247 W/m 9,1 C 14,1 C 3,2 km/h (1 Bft) 100,00 %
16.11.2015 11:05 14,2 C 71 % 1017,4 hPa 0,0 l/m 0,7 km/h (0 Bft) NW 311 5 min 0,000 mm 1,1 UV-I 322 W/m 9,0 C 14,2 C 3,2 km/h (1 Bft) 99,17 %
16.11.2015 11:10 14,4 C 72 % 1017,3 hPa 0,0 l/m 1,5 km/h (1 Bft) NW 311 5 min 0,000 mm 1,1 UV-I 326 W/m 9,4 C 14,4 C 4,8 km/h (1 Bft) 97,25 %
16.11.2015 11:15 14,4 C 69 % 1017,2 hPa 0,0 l/m 2,6 km/h (1 Bft) W 278 5 min 0,000 mm 1,0 UV-I 270 W/m 8,8 C 14,4 C 4,8 km/h (1 Bft) 100,00 %
16.11.2015 11:20 14,5 C 73 % 1017,2 hPa 0,0 l/m 1,4 km/h (1 Bft) NW 307 5 min 0,000 mm 1,0 UV-I 270 W/m 9,7 C 14,5 C 3,2 km/h (1 Bft) 100,00 %
16.11.2015 11:25 14,4 C 72 % 1017,1 hPa 0,0 l/m 1,7 km/h (1 Bft) N 355 5 min 0,000 mm 1,0 UV-I 254 W/m 9,4 C 14,4 C 4,8 km/h (1 Bft) 99,21 %
16.11.2015 11:30 14,4 C 71 % 1017,1 hPa 0,0 l/m 1,0 km/h (0 Bft) W-NW 287 5 min 0,000 mm 1,1 UV-I 297 W/m 9,2 C 14,4 C 3,2 km/h (1 Bft) 99,11 %
16.11.2015 11:35 14,5 C 73 % 1017,0 hPa 0,0 l/m 1,1 km/h (1 Bft) N-NW 339 5 min 0,000 mm 1,1 UV-I 349 W/m 9,7 C 14,5 C 4,8 km/h (1 Bft) 100,00 %
16.11.2015 11:40 14,6 C 72 % 1017,0 hPa 0,0 l/m 1,8 km/h (1 Bft) N-NW 327 5 min 0,000 mm 1,1 UV-I 309 W/m 9,6 C 14,6 C 4,8 km/h (1 Bft) 99,19 %
16.11.2015 11:45 14,7 C 72 % 1017,0 hPa 0,0 l/m 1,5 km/h (1 Bft) W-NW 285 5 min 0,000 mm 1,2 UV-I 340 W/m 9,7 C 14,7 C 4,8 km/h (1 Bft) 99,15 %
16.11.2015 11:50 14,8 C 71 % 1016,8 hPa 0,0 l/m 1,9 km/h (1 Bft) W 269 5 min 0,000 mm 1,2 UV-I 371 W/m 9,6 C 14,8 C 4,8 km/h (1 Bft) 100,00 %
16.11.2015 11:55 14,9 C 70 % 1016,8 hPa 0,0 l/m 2,0 km/h (1 Bft) N-NW 342 5 min 0,000 mm 1,1 UV-I 329 W/m 9,5 C 14,9 C 8,0 km/h (2 Bft) 98,20 %
16.11.2015 12:00 15,1 C 70 % 1016,8 hPa 0,0 l/m 1,9 km/h (1 Bft) N-NW 348 5 min 0,178 mm 1,2 UV-I 373 W/m 9,7 C 15,1 C 4,8 km/h (1 Bft) 98,39 %
16.11.2015 12:05 15,2 C 72 % 1016,8 hPa 0,0 l/m 1,7 km/h (1 Bft) W-NW 302 5 min 0,000 mm 1,1 UV-I 317 W/m 10,2 C 15,2 C 4,8 km/h (1 Bft) 99,06 %
16.11.2015 12:10 15,2 C 69 % 1016,7 hPa 0,0 l/m 2,2 km/h (1 Bft) W-NW 294 5 min 0,000 mm 1,1 UV-I 325 W/m 9,6 C 15,2 C 4,8 km/h (1 Bft) 99,19 %
16.11.2015 12:15 15,6 C 71 % 1016,6 hPa 0,0 l/m 1,4 km/h (1 Bft) N 350 5 min 0,000 mm 1,2 UV-I 368 W/m 10,4 C 15,6 C 4,8 km/h (1 Bft) 100,00 %
16.11.2015 12:20 15,7 C 69 % 1016,6 hPa 0,0 l/m 1,6 km/h (1 Bft) N 350 5 min 0,000 mm 1,1 UV-I 306 W/m 10,0 C 15,7 C 4,8 km/h (1 Bft) 97,56 %
16.11.2015 12:25 15,6 C 67 % 1016,6 hPa 0,0 l/m 2,4 km/h (1 Bft) N 11 5 min 0,000 mm 1,0 UV-I 310 W/m 9,5 C 15,6 C 6,4 km/h (2 Bft) 99,11 %
16.11.2015 12:30 15,8 C 69 % 1016,6 hPa 0,0 l/m 2,3 km/h (1 Bft) N-NO 20 5 min 0,000 mm 1,1 UV-I 323 W/m 10,1 C 15,8 C 4,8 km/h (1 Bft) 99,13 %
16.11.2015 12:35 15,9 C 69 % 1016,6 hPa 0,0 l/m 2,0 km/h (1 Bft) N 355 5 min 0,000 mm 1,1 UV-I 310 W/m 10,2 C 15,9 C 6,4 km/h (2 Bft) 99,19 %
16.11.2015 12:40 15,8 C 69 % 1016,5 hPa 0,0 l/m 3,8 km/h (1 Bft) N-NO 26 5 min 0,000 mm 1,0 UV-I 269 W/m 10,1 C 15,8 C 6,4 km/h (2 Bft) 100,00 %
16.11.2015 12:45 15,9 C 68 % 1016,4 hPa 0,0 l/m 3,1 km/h (1 Bft) N 355 5 min 0,000 mm 1,0 UV-I 303 W/m 10,0 C 15,9 C 6,4 km/h (2 Bft) 100,00 %
16.11.2015 12:50 16,1 C 68 % 1016,4 hPa 0,0 l/m 2,8 km/h (1 Bft) N 355 5 min 0,000 mm 1,0 UV-I 298 W/m 10,2 C 16,1 C 6,4 km/h (2 Bft) 99,11 %
16.11.2015 12:55 16,2 C 66 % 1016,4 hPa 0,0 l/m 2,6 km/h (1 Bft) N-NW 337 5 min 0,000 mm 1,0 UV-I 296 W/m 9,8 C 16,2 C 6,4 km/h (2 Bft) 100,00 %
16.11.2015 13:00 16,2 C 65 % 1016,2 hPa 0,0 l/m 1,6 km/h (1 Bft) N-NW 343 5 min 0,178 mm 0,9 UV-I 244 W/m 9,6 C 16,2 C 4,8 km/h (1 Bft) 99,15 %
16.11.2015 13:05 16,2 C 65 % 1016,2 hPa 0,0 l/m 1,8 km/h (1 Bft) N-NW 338 5 min 0,000 mm 0,8 UV-I 228 W/m 9,6 C 16,2 C 4,8 km/h (1 Bft) 100,00 %
16.11.2015 13:10 16,3 C 65 % 1016,2 hPa 0,0 l/m 0,7 km/h (0 Bft) W-NW 285 5 min 0,000 mm 0,9 UV-I 284 W/m 9,7 C 16,3 C 3,2 km/h (1 Bft) 98,35 %
16.11.2015 13:15 16,3 C 63 % 1016,1 hPa 0,0 l/m 1,4 km/h (1 Bft) SO 138 5 min 0,000 mm 0,9 UV-I 263 W/m 9,2 C 16,3 C 4,8 km/h (1 Bft) 98,25 %
16.11.2015 13:20 16,4 C 63 % 1016,0 hPa 0,0 l/m 1,9 km/h (1 Bft) N-NO 30 5 min 0,000 mm 0,9 UV-I 285 W/m 9,3 C 16,4 C 4,8 km/h (1 Bft) 100,00 %
16.11.2015 13:25 16,4 C 63 % 1015,9 hPa 0,0 l/m 1,3 km/h (1 Bft) W 267 5 min 0,000 mm 0,8 UV-I 262 W/m 9,3 C 16,4 C 3,2 km/h (1 Bft) 97,25 %
16.11.2015 13:30 16,4 C 65 % 1015,9 hPa 0,0 l/m 1,0 km/h (0 Bft) N-NO 13 5 min 0,000 mm 0,8 UV-I 275 W/m 9,8 C 16,4 C 3,2 km/h (1 Bft) 99,19 %
16.11.2015 13:35 16,3 C 67 % 1015,8 hPa 0,0 l/m 2,6 km/h (1 Bft) N 9 5 min 0,000 mm 0,7 UV-I 216 W/m 10,2 C 16,3 C 6,4 km/h (2 Bft) 99,11 %
16.11.2015 13:40 16,1 C 68 % 1015,8 hPa 0,0 l/m 2,0 km/h (1 Bft) N 349 5 min 0,000 mm 0,7 UV-I 221 W/m 10,2 C 16,1 C 4,8 km/h (1 Bft) 98,33 %
16.11.2015 13:45 16,2 C 67 % 1015,8 hPa 0,0 l/m 1,6 km/h (1 Bft) N 355 5 min 0,000 mm 0,7 UV-I 273 W/m 10,1 C 16,2 C 4,8 km/h (1 Bft) 100,00 %
16.11.2015 13:50 16,3 C 66 % 1015,8 hPa 0,0 l/m 2,6 km/h (1 Bft) N-NO 13 5 min 0,000 mm 0,7 UV-I 270 W/m 9,9 C 16,3 C 6,4 km/h (2 Bft) 98,17 %
16.11.2015 13:55 16,3 C 68 % 1015,7 hPa 0,0 l/m 2,4 km/h (1 Bft) N-NO 13 5 min 0,000 mm 0,7 UV-I 271 W/m 10,4 C 16,3 C 4,8 km/h (1 Bft) 99,17 %
16.11.2015 14:00 16,3 C 66 % 1015,7 hPa 0,0 l/m 3,1 km/h (1 Bft) N 11 5 min 0,152 mm 0,6 UV-I 246 W/m 9,9 C 16,3 C 6,4 km/h (2 Bft) 100,00 %
16.11.2015 14:05 16,4 C 66 % 1015,7 hPa 0,0 l/m 0,9 km/h (0 Bft) N-NW 334 5 min 0,000 mm 0,6 UV-I 218 W/m 10,0 C 16,4 C 3,2 km/h (1 Bft) 99,15 %
16.11.2015 14:10 16,5 C 65 % 1015,6 hPa 0,0 l/m 0,4 km/h (0 Bft) N-NO 28 5 min 0,000 mm 0,5 UV-I 202 W/m 9,9 C 16,5 C 3,2 km/h (1 Bft) 96,67 %
16.11.2015 14:15 16,5 C 65 % 1015,6 hPa 0,0 l/m 0,4 km/h (0 Bft) N-NO 28 5 min 0,000 mm 0,5 UV-I 186 W/m 9,9 C 16,5 C 1,6 km/h (1 Bft) 99,08 %
16.11.2015 14:20 16,4 C 63 % 1015,5 hPa 0,0 l/m 1,1 km/h (1 Bft) NW 313 5 min 0,000 mm 0,4 UV-I 177 W/m 9,3 C 16,4 C 3,2 km/h (1 Bft) 96,75 %
16.11.2015 14:25 16,4 C 63 % 1015,5 hPa 0,0 l/m 1,2 km/h (1 Bft) NW 316 5 min 0,000 mm 0,0 UV-I 147 W/m 9,3 C 16,4 C 3,2 km/h (1 Bft) 98,21 %
16.11.2015 14:30 16,3 C 64 % 1015,5 hPa 0,0 l/m 0,3 km/h (0 Bft) NW 316 0 min 0,000 mm 0,0 UV-I 118 W/m 9,5 C 16,3 C 1,6 km/h (1 Bft) 99,15 %
16.11.2015 14:35 16,3 C 65 % 1015,4 hPa 0,0 l/m 0,1 km/h (0 Bft) NW 316 0 min 0,000 mm 0,0 UV-I 116 W/m 9,7 C 16,3 C 1,6 km/h (1 Bft) 98,37 %
16.11.2015 14:40 16,2 C 64 % 1015,3 hPa 0,0 l/m 0,1 km/h (0 Bft) NW 316 5 min 0,000 mm 0,0 UV-I 130 W/m 9,4 C 16,2 C 1,6 km/h (1 Bft) 100,00 %
16.11.2015 14:45 16,3 C 64 % 1015,2 hPa 0,0 l/m 0,1 km/h (0 Bft) NW 316 5 min 0,000 mm 0,0 UV-I 140 W/m 9,5 C 16,3 C 1,6 km/h (1 Bft) 100,00 %
16.11.2015 14:50 16,3 C 63 % 1015,2 hPa 0,0 l/m 0,0 km/h (0 Bft) NW 316 5 min 0,000 mm 0,0 UV-I 138 W/m 9,2 C 16,3 C 0,0 km/h (0 Bft) 98,29 %
16.11.2015 14:55 16,3 C 63 % 1015,3 hPa 0,0 l/m 0,0 km/h (0 Bft) NW 316 5 min 0,000 mm 0,0 UV-I 137 W/m 9,2 C 16,3 C 1,6 km/h (1 Bft) 99,13 %
16.11.2015 15:00 16,3 C 65 % 1015,3 hPa 0,0 l/m 0,1 km/h (0 Bft) NW 316 5 min 0,077 mm 0,0 UV-I 110 W/m 9,7 C 16,3 C 1,6 km/h (1 Bft) 97,50 %
16.11.2015 15:05 16,2 C 66 % 1015,4 hPa 0,0 l/m 0,0 km/h (0 Bft) NW 316 0 min 0,000 mm 0,0 UV-I 90 W/m 9,8 C 16,2 C 0,0 km/h (0 Bft) 99,08 %
16.11.2015 15:10 15,8 C 70 % 1015,4 hPa 0,0 l/m 0,0 km/h (0 Bft) NW 316 0 min 0,000 mm 0,0 UV-I 70 W/m 10,3 C 15,8 C 0,0 km/h (0 Bft) 99,17 %
16.11.2015 15:15 15,6 C 68 % 1015,4 hPa 0,0 l/m 0,2 km/h (0 Bft) NW 316 0 min 0,000 mm 0,0 UV-I 67 W/m 9,7 C 15,6 C 1,6 km/h (1 Bft) 100,00 %
16.11.2015 15:20 15,5 C 68 % 1015,4 hPa 0,0 l/m 0,8 km/h (0 Bft) NW 316 0 min 0,000 mm 0,0 UV-I 64 W/m 9,6 C 15,5 C 1,6 km/h (1 Bft) 99,19 %
16.11.2015 15:25 14,8 C 72 % 1015,4 hPa 0,0 l/m 0,8 km/h (0 Bft) NW 316 0 min 0,000 mm 0,0 UV-I 56 W/m 9,8 C 14,8 C 1,6 km/h (1 Bft) 100,00 %
16.11.2015 15:30 14,4 C 74 % 1015,3 hPa 0,0 l/m 1,1 km/h (1 Bft) NW 317 0 min 0,000 mm 0,0 UV-I 57 W/m 9,8 C 14,4 C 3,2 km/h (1 Bft) 98,41 %
16.11.2015 15:35 14,1 C 76 % 1015,1 hPa 0,0 l/m 0,8 km/h (0 Bft) O-NO 70 0 min 0,000 mm 0,0 UV-I 54 W/m 9,9 C 14,1 C 3,2 km/h (1 Bft) 99,13 %
16.11.2015 15:40 13,8 C 78 % 1015,1 hPa 0,0 l/m 0,4 km/h (0 Bft) O-NO 70 0 min 0,000 mm 0,0 UV-I 45 W/m 10,0 C 13,8 C 1,6 km/h (1 Bft) 99,11 %
16.11.2015 15:45 14,2 C 75 % 1015,1 hPa 0,0 l/m 0,5 km/h (0 Bft) O-NO 70 0 min 0,000 mm 0,0 UV-I 35 W/m 9,8 C 14,2 C 1,6 km/h (1 Bft) 97,44 %
16.11.2015 15:50 14,3 C 75 % 1015,1 hPa 0,0 l/m 0,1 km/h (0 Bft) O-NO 70 0 min 0,000 mm 0,0 UV-I 30 W/m 9,9 C 14,3 C 1,6 km/h (1 Bft) 100,00 %
16.11.2015 15:55 13,8 C 77 % 1015,2 hPa 0,0 l/m 0,0 km/h (0 Bft) O-NO 70 0 min 0,000 mm 0,0 UV-I 28 W/m 9,8 C 13,8 C 0,0 km/h (0 Bft) 99,10 %
16.11.2015 16:00 13,4 C 79 % 1015,1 hPa 0,0 l/m 0,1 km/h (0 Bft) O-NO 70 0 min 0,000 mm 0,0 UV-I 25 W/m 9,8 C 13,4 C 1,6 km/h (1 Bft) 99,17 %
16.11.2015 16:05 13,1 C 80 % 1015,0 hPa 0,0 l/m 0,7 km/h (0 Bft) O-NO 70 0 min 0,025 mm 0,0 UV-I 19 W/m 9,7 C 13,1 C 1,6 km/h (1 Bft) 100,00 %
16.11.2015 16:10 12,7 C 81 % 1015,1 hPa 0,0 l/m 0,6 km/h (0 Bft) O-NO 70 5 min 0,000 mm 0,0 UV-I 15 W/m 9,5 C 12,7 C 1,6 km/h (1 Bft) 99,21 %
16.11.2015 16:15 12,5 C 82 % 1015,1 hPa 0,0 l/m 0,1 km/h (0 Bft) O-NO 70 0 min 0,000 mm 0,0 UV-I 12 W/m 9,5 C 12,5 C 1,6 km/h (1 Bft) 99,16 %
16.11.2015 16:20 12,3 C 84 % 1015,1 hPa 0,0 l/m 0,1 km/h (0 Bft) O-NO 70 0 min 0,000 mm 0,0 UV-I 10 W/m 9,7 C 12,3 C 1,6 km/h (1 Bft) 99,11 %
16.11.2015 16:25 12,6 C 82 % 1015,1 hPa 0,0 l/m 0,0 km/h (0 Bft) O-NO 70 0 min 0,000 mm 0,0 UV-I 6 W/m 9,6 C 12,6 C 0,0 km/h (0 Bft) 98,99 %
16.11.2015 16:30 12,5 C 82 % 1015,2 hPa 0,0 l/m 0,3 km/h (0 Bft) O-NO 70 0 min 0,000 mm 0,0 UV-I 4 W/m 9,5 C 12,5 C 1,6 km/h (1 Bft) 100,00 %
16.11.2015 16:35 12,1 C 84 % 1015,1 hPa 0,0 l/m 2,3 km/h (1 Bft) SO 124 0 min 0,000 mm 0,0 UV-I 0 W/m 9,5 C 12,1 C 3,2 km/h (1 Bft) 99,12 %
16.11.2015 16:40 11,6 C 86 % 1015,0 hPa 0,0 l/m 2,0 km/h (1 Bft) SO 124 0 min 0,000 mm 0,0 UV-I 0 W/m 9,3 C 11,6 C 3,2 km/h (1 Bft) 98,39 %
16.11.2015 16:45 11,2 C 86 % 1015,0 hPa 0,0 l/m 2,0 km/h (1 Bft) SO 124 0 min 0,000 mm 0,0 UV-I 0 W/m 8,9 C 11,2 C 3,2 km/h (1 Bft) 100,00 %
16.11.2015 16:50 10,9 C 87 % 1015,0 hPa 0,0 l/m 0,9 km/h (0 Bft) SO 124 0 min 0,000 mm 0,0 UV-I 0 W/m 8,8 C 10,9 C 3,2 km/h (1 Bft) 100,00 %
16.11.2015 16:55 10,9 C 87 % 1015,0 hPa 0,0 l/m 0,2 km/h (0 Bft) SO 124 0 min 0,000 mm 0,0 UV-I 0 W/m 8,8 C 10,9 C 1,6 km/h (1 Bft) 100,00 %
16.11.2015 17:00 11,1 C 87 % 1015,1 hPa 0,0 l/m 0,0 km/h (0 Bft) SO 124 0 min 0,000 mm 0,0 UV-I 0 W/m 9,0 C 11,1 C 1,6 km/h (1 Bft) 98,37 %
16.11.2015 17:05 11,3 C 85 % 1015,1 hPa 0,0 l/m 0,1 km/h (0 Bft) SO 124 0 min 0,000 mm 0,0 UV-I 0 W/m 8,9 C 11,3 C 1,6 km/h (1 Bft) 100,00 %
16.11.2015 17:10 11,1 C 85 % 1015,2 hPa 0,0 l/m 0,6 km/h (0 Bft) SO 124 0 min 0,000 mm 0,0 UV-I 0 W/m 8,7 C 11,1 C 1,6 km/h (1 Bft) 99,13 %
16.11.2015 17:15 10,9 C 86 % 1015,2 hPa 0,0 l/m 0,0 km/h (0 Bft) SO 124 0 min 0,000 mm 0,0 UV-I 0 W/m 8,7 C 10,9 C 0,0 km/h (0 Bft) 100,00 %
16.11.2015 17:20 10,7 C 87 % 1015,2 hPa 0,0 l/m 0,0 km/h (0 Bft) SO 124 0 min 0,000 mm 0,0 UV-I 0 W/m 8,6 C 10,7 C 1,6 km/h (1 Bft) 100,00 %
16.11.2015 17:25 10,8 C 87 % 1015,1 hPa 0,0 l/m 0,0 km/h (0 Bft) SO 124 0 min 0,000 mm 0,0 UV-I 0 W/m 8,7 C 10,8 C 1,6 km/h (1 Bft) 98,31 %
16.11.2015 17:30 10,3 C 88 % 1015,1 hPa 0,0 l/m 0,4 km/h (0 Bft) SO 124 0 min 0,000 mm 0,0 UV-I 0 W/m 8,4 C 10,3 C 3,2 km/h (1 Bft) 99,07 %
16.11.2015 17:35 10,6 C 86 % 1015,1 hPa 0,0 l/m 1,8 km/h (1 Bft) SO 124 0 min 0,000 mm 0,0 UV-I 0 W/m 8,4 C 10,6 C 3,2 km/h (1 Bft) 99,17 %
16.11.2015 17:40 10,2 C 88 % 1015,1 hPa 0,0 l/m 0,8 km/h (0 Bft) SO 124 0 min 0,000 mm 0,0 UV-I 0 W/m 8,3 C 10,2 C 1,6 km/h (1 Bft) 99,19 %
16.11.2015 17:45 10,0 C 89 % 1015,2 hPa 0,0 l/m 0,0 km/h (0 Bft) SO 124 0 min 0,000 mm 0,0 UV-I 0 W/m 8,3 C 10,0 C 0,0 km/h (0 Bft) 100,00 %
16.11.2015 17:50 10,1 C 89 % 1015,1 hPa 0,0 l/m 0,2 km/h (0 Bft) SO 124 0 min 0,000 mm 0,0 UV-I 0 W/m 8,4 C 10,1 C 1,6 km/h (1 Bft) 98,31 %
16.11.2015 17:55 10,0 C 90 % 1015,1 hPa 0,0 l/m 1,1 km/h (1 Bft) SO 124 0 min 0,000 mm 0,0 UV-I 0 W/m 8,4 C 10,0 C 3,2 km/h (1 Bft) 99,17 %
16.11.2015 18:00 10,0 C 89 % 1015,1 hPa 0,0 l/m 1,0 km/h (0 Bft) SO 124 0 min 0,000 mm 0,0 UV-I 0 W/m 8,3 C 10,0 C 3,2 km/h (1 Bft) 98,35 %
16.11.2015 18:05 9,8 C 89 % 1015,1 hPa 0,0 l/m 0,5 km/h (0 Bft) SO 124 0 min 0,000 mm 0,0 UV-I 0 W/m 8,1 C 9,8 C 1,6 km/h (1 Bft) 98,26 %
16.11.2015 18:10 9,6 C 90 % 1015,2 hPa 0,0 l/m 0,2 km/h (0 Bft) SO 124 0 min 0,000 mm 0,0 UV-I 0 W/m 8,0 C 9,6 C 1,6 km/h (1 Bft) 100,00 %
16.11.2015 18:15 9,6 C 91 % 1015,2 hPa 0,0 l/m 0,5 km/h (0 Bft) SO 124 0 min 0,000 mm 0,0 UV-I 0 W/m 8,2 C 9,6 C 1,6 km/h (1 Bft) 100,00 %
16.11.2015 18:20 9,8 C 91 % 1015,2 hPa 0,0 l/m 1,3 km/h (1 Bft) SO 124 0 min 0,000 mm 0,0 UV-I 0 W/m 8,4 C 9,8 C 3,2 km/h (1 Bft) 99,17 %
16.11.2015 18:25 9,8 C 91 % 1015,3 hPa 0,0 l/m 0,1 km/h (0 Bft) SO 124 0 min 0,000 mm 0,0 UV-I 0 W/m 8,4 C 9,8 C 1,6 km/h (1 Bft) 99,12 %
16.11.2015 18:30 9,2 C 90 % 1015,3 hPa 0,0 l/m 0,3 km/h (0 Bft) SO 124 0 min 0,000 mm 0,0 UV-I 0 W/m 7,6 C 9,2 C 1,6 km/h (1 Bft) 99,19 %
16.11.2015 18:35 9,1 C 92 % 1015,3 hPa 0,0 l/m 0,9 km/h (0 Bft) SO 124 0 min 0,000 mm 0,0 UV-I 0 W/m 7,9 C 9,1 C 1,6 km/h (1 Bft) 100,00 %
16.11.2015 18:40 9,1 C 92 % 1015,3 hPa 0,0 l/m 0,7 km/h (0 Bft) SO 124 0 min 0,000 mm 0,0 UV-I 0 W/m 7,9 C 9,1 C 1,6 km/h (1 Bft) 98,37 %
16.11.2015 18:45 9,1 C 93 % 1015,3 hPa 0,0 l/m 0,8 km/h (0 Bft) SO 126 0 min 0,000 mm 0,0 UV-I 0 W/m 8,0 C 9,1 C 3,2 km/h (1 Bft) 99,13 %
16.11.2015 18:50 9,7 C 92 % 1015,4 hPa 0,0 l/m 1,7 km/h (1 Bft) S 170 0 min 0,000 mm 0,0 UV-I 0 W/m 8,5 C 9,7 C 3,2 km/h (1 Bft) 100,00 %
16.11.2015 18:55 9,6 C 91 % 1015,4 hPa 0,0 l/m 0,2 km/h (0 Bft) S 170 0 min 0,000 mm 0,0 UV-I 0 W/m 8,2 C 9,6 C 1,6 km/h (1 Bft) 99,15 %
16.11.2015 19:00 9,8 C 90 % 1015,4 hPa 0,0 l/m 2,3 km/h (1 Bft) S 175 0 min 0,000 mm 0,0 UV-I 0 W/m 8,2 C 9,8 C 3,2 km/h (1 Bft) 99,17 %
16.11.2015 19:05 9,8 C 89 % 1015,4 hPa 0,0 l/m 1,6 km/h (1 Bft) S 175 0 min 0,000 mm 0,0 UV-I 0 W/m 8,1 C 9,8 C 3,2 km/h (1 Bft) 97,44 %
16.11.2015 19:10 9,8 C 90 % 1015,4 hPa 0,0 l/m 2,0 km/h (1 Bft) S 187 0 min 0,000 mm 0,0 UV-I 0 W/m 8,2 C 9,8 C 4,8 km/h (1 Bft) 99,11 %
16.11.2015 19:15 9,9 C 89 % 1015,5 hPa 0,0 l/m 2,2 km/h (1 Bft) S 183 0 min 0,000 mm 0,0 UV-I 0 W/m 8,2 C 9,9 C 4,8 km/h (1 Bft) 99,21 %
16.11.2015 19:20 10,3 C 87 % 1015,5 hPa 0,0 l/m 2,3 km/h (1 Bft) S-SW 196 0 min 0,000 mm 0,0 UV-I 0 W/m 8,2 C 10,3 C 4,8 km/h (1 Bft) 97,25 %
16.11.2015 19:25 10,3 C 86 % 1015,5 hPa 0,0 l/m 1,9 km/h (1 Bft) S 190 0 min 0,000 mm 0,0 UV-I 0 W/m 8,1 C 10,3 C 3,2 km/h (1 Bft) 99,17 %
16.11.2015 19:30 10,2 C 86 % 1015,5 hPa 0,0 l/m 2,1 km/h (1 Bft) S 190 0 min 0,000 mm 0,0 UV-I 0 W/m 8,0 C 10,2 C 3,2 km/h (1 Bft) 76,42 %
16.11.2015 19:35 9,7 C 87 % 1015,5 hPa 0,0 l/m 1,2 km/h (1 Bft) S 189 0 min 0,000 mm 0,0 UV-I 0 W/m 7,6 C 9,7 C 3,2 km/h (1 Bft) 99,11 %
16.11.2015 19:40 9,9 C 87 % 1015,6 hPa 0,0 l/m 1,9 km/h (1 Bft) S 189 0 min 0,000 mm 0,0 UV-I 0 W/m 7,8 C 9,9 C 4,8 km/h (1 Bft) 94,64 %
16.11.2015 19:45 9,6 C 86 % 1015,6 hPa 0,0 l/m 1,4 km/h (1 Bft) S 189 0 min 0,000 mm 0,0 UV-I 0 W/m 7,4 C 9,6 C 3,2 km/h (1 Bft) 99,17 %
16.11.2015 19:50 9,5 C 88 % 1015,6 hPa 0,0 l/m 1,9 km/h (1 Bft) S 188 0 min 0,000 mm 0,0 UV-I 0 W/m 7,6 C 9,5 C 4,8 km/h (1 Bft) 98,35 %
16.11.2015 19:55 9,9 C 86 % 1015,6 hPa 0,0 l/m 2,2 km/h (1 Bft) S 188 0 min 0,000 mm 0,0 UV-I 0 W/m 7,7 C 9,9 C 3,2 km/h (1 Bft) 98,29 %
16.11.2015 20:00 10,3 C 83 % 1015,7 hPa 0,0 l/m 1,5 km/h (1 Bft) S 188 0 min 0,000 mm 0,0 UV-I 0 W/m 7,5 C 10,3 C 4,8 km/h (1 Bft) 99,08 %
16.11.2015 20:05 10,0 C 85 % 1015,7 hPa 0,0 l/m 1,1 km/h (1 Bft) S 188 0 min 0,000 mm 0,0 UV-I 0 W/m 7,6 C 10,0 C 3,2 km/h (1 Bft) 98,39 %
16.11.2015 20:10 10,2 C 83 % 1015,7 hPa 0,0 l/m 2,6 km/h (1 Bft) S 188 0 min 0,000 mm 0,0 UV-I 0 W/m 7,4 C 10,2 C 4,8 km/h (1 Bft) 99,17 %
16.11.2015 20:15 10,0 C 83 % 1015,7 hPa 0,0 l/m 2,3 km/h (1 Bft) S 182 0 min 0,000 mm 0,0 UV-I 0 W/m 7,2 C 10,0 C 3,2 km/h (1 Bft) 98,21 %
16.11.2015 20:20 10,0 C 83 % 1015,7 hPa 0,0 l/m 2,4 km/h (1 Bft) S 189 0 min 0,000 mm 0,0 UV-I 0 W/m 7,2 C 10,0 C 3,2 km/h (1 Bft) 99,11 %
16.11.2015 20:25 10,3 C 82 % 1015,7 hPa 0,0 l/m 3,3 km/h (1 Bft) S-SW 196 0 min 0,000 mm 0,0 UV-I 0 W/m 7,4 C 10,3 C 4,8 km/h (1 Bft) 100,00 %
16.11.2015 20:30 10,6 C 81 % 1015,7 hPa 0,0 l/m 2,9 km/h (1 Bft) S-SW 195 0 min 0,000 mm 0,0 UV-I 0 W/m 7,5 C 10,6 C 4,8 km/h (1 Bft) 99,11 %
16.11.2015 20:35 10,6 C 80 % 1015,8 hPa 0,0 l/m 2,5 km/h (1 Bft) S-SW 212 0 min 0,000 mm 0,0 UV-I 0 W/m 7,3 C 10,6 C 6,4 km/h (2 Bft) 100,00 %
16.11.2015 20:40 10,3 C 81 % 1015,9 hPa 0,0 l/m 2,4 km/h (1 Bft) S-SW 212 0 min 0,000 mm 0,0 UV-I 0 W/m 7,2 C 10,3 C 4,8 km/h (1 Bft) 100,00 %
16.11.2015 20:45 10,3 C 81 % 1015,9 hPa 0,0 l/m 2,7 km/h (1 Bft) S-SW 199 0 min 0,000 mm 0,0 UV-I 0 W/m 7,2 C 10,3 C 4,8 km/h (1 Bft) 99,11 %
16.11.2015 20:50 10,3 C 80 % 1015,9 hPa 0,0 l/m 2,3 km/h (1 Bft) SW 223 0 min 0,000 mm 0,0 UV-I 0 W/m 7,0 C 10,3 C 4,8 km/h (1 Bft) 95,83 %
16.11.2015 20:55 10,3 C 80 % 1015,9 hPa 0,0 l/m 2,6 km/h (1 Bft) S-SW 206 0 min 0,000 mm 0,0 UV-I 0 W/m 7,0 C 10,3 C 4,8 km/h (1 Bft) 97,32 %
16.11.2015 21:00 10,7 C 78 % 1016,0 hPa 0,0 l/m 3,0 km/h (1 Bft) S-SW 205 0 min 0,000 mm 0,0 UV-I 0 W/m 7,0 C 10,7 C 6,4 km/h (2 Bft) 99,11 %
16.11.2015 21:05 10,7 C 78 % 1016,0 hPa 0,0 l/m 2,6 km/h (1 Bft) S-SW 207 0 min 0,000 mm 0,0 UV-I 0 W/m 7,0 C 10,7 C 4,8 km/h (1 Bft) 100,00 %
16.11.2015 21:10 10,8 C 78 % 1016,1 hPa 0,0 l/m 2,9 km/h (1 Bft) S-SW 193 0 min 0,000 mm 0,0 UV-I 0 W/m 7,1 C 10,8 C 4,8 km/h (1 Bft) 98,26 %
16.11.2015 21:15 11,0 C 77 % 1016,1 hPa 0,0 l/m 3,9 km/h (1 Bft) S-SW 202 0 min 0,000 mm 0,0 UV-I 0 W/m 7,1 C 11,0 C 8,0 km/h (2 Bft) 98,17 %
16.11.2015 21:20 11,1 C 76 % 1016,2 hPa 0,0 l/m 3,5 km/h (1 Bft) SW 227 0 min 0,000 mm 0,0 UV-I 0 W/m 7,0 C 11,1 C 8,0 km/h (2 Bft) 99,19 %
16.11.2015 21:25 11,3 C 74 % 1016,2 hPa 0,0 l/m 5,2 km/h (1 Bft) SW 230 0 min 0,000 mm 0,0 UV-I 0 W/m 6,8 C 11,3 C 9,7 km/h (2 Bft) 95,65 %
16.11.2015 21:30 11,5 C 73 % 1016,2 hPa 0,0 l/m 5,4 km/h (1 Bft) W-SW 241 0 min 0,000 mm 0,0 UV-I 0 W/m 6,8 C 11,5 C 12,9 km/h (3 Bft) 97,44 %
16.11.2015 21:35 11,3 C 73 % 1016,2 hPa 0,0 l/m 3,2 km/h (1 Bft) S-SW 208 0 min 0,000 mm 0,0 UV-I 0 W/m 6,6 C 11,3 C 6,4 km/h (2 Bft) 92,74 %
16.11.2015 21:40 11,1 C 74 % 1016,2 hPa 0,0 l/m 2,1 km/h (1 Bft) SW 224 0 min 0,000 mm 0,0 UV-I 0 W/m 6,6 C 11,1 C 6,4 km/h (2 Bft) 96,43 %
16.11.2015 21:45 11,1 C 75 % 1016,2 hPa 0,0 l/m 2,9 km/h (1 Bft) SW 233 0 min 0,000 mm 0,0 UV-I 0 W/m 6,8 C 11,1 C 6,4 km/h (2 Bft) 98,29 %
16.11.2015 21:50 11,2 C 75 % 1016,2 hPa 0,0 l/m 3,2 km/h (1 Bft) SW 227 0 min 0,000 mm 0,0 UV-I 0 W/m 6,9 C 11,2 C 8,0 km/h (2 Bft) 98,26 %
16.11.2015 21:55 11,4 C 73 % 1016,3 hPa 0,0 l/m 5,4 km/h (1 Bft) SW 217 0 min 0,000 mm 0,0 UV-I 0 W/m 6,7 C 11,4 C 11,3 km/h (2 Bft) 99,15 %
16.11.2015 22:00 11,6 C 73 % 1016,3 hPa 0,0 l/m 4,9 km/h (1 Bft) SW 223 0 min 0,025 mm 0,0 UV-I 0 W/m 6,9 C 11,6 C 9,7 km/h (2 Bft) 99,17 %
16.11.2015 22:05 11,3 C 74 % 1016,4 hPa 0,0 l/m 2,7 km/h (1 Bft) SW 223 0 min 0,000 mm 0,0 UV-I 0 W/m 6,8 C 11,3 C 4,8 km/h (1 Bft) 98,35 %
16.11.2015 22:10 11,1 C 74 % 1016,4 hPa 0,0 l/m 2,5 km/h (1 Bft) SW 216 0 min 0,000 mm 0,0 UV-I 0 W/m 6,6 C 11,1 C 4,8 km/h (1 Bft) 100,00 %
16.11.2015 22:15 11,1 C 74 % 1016,4 hPa 0,0 l/m 1,7 km/h (1 Bft) W-SW 252 0 min 0,000 mm 0,0 UV-I 0 W/m 6,6 C 11,1 C 4,8 km/h (1 Bft) 100,00 %
16.11.2015 22:20 11,2 C 74 % 1016,5 hPa 0,0 l/m 2,4 km/h (1 Bft) SW 233 0 min 0,000 mm 0,0 UV-I 0 W/m 6,7 C 11,2 C 4,8 km/h (1 Bft) 100,00 %
16.11.2015 22:25 11,0 C 74 % 1016,5 hPa 0,0 l/m 2,5 km/h (1 Bft) W-SW 257 0 min 0,000 mm 0,0 UV-I 0 W/m 6,5 C 11,0 C 4,8 km/h (1 Bft) 99,21 %
16.11.2015 22:30 10,8 C 75 % 1016,5 hPa 0,0 l/m 2,3 km/h (1 Bft) SW 230 0 min 0,000 mm 0,0 UV-I 0 W/m 6,5 C 10,8 C 3,2 km/h (1 Bft) 99,13 %
16.11.2015 22:35 10,7 C 75 % 1016,5 hPa 0,0 l/m 2,3 km/h (1 Bft) W-SW 237 0 min 0,000 mm 0,0 UV-I 0 W/m 6,5 C 10,7 C 4,8 km/h (1 Bft) 99,08 %
16.11.2015 22:40 10,6 C 76 % 1016,6 hPa 0,0 l/m 1,9 km/h (1 Bft) W-SW 237 0 min 0,000 mm 0,0 UV-I 0 W/m 6,5 C 10,6 C 3,2 km/h (1 Bft) 100,00 %
16.11.2015 22:45 10,6 C 76 % 1016,6 hPa 0,0 l/m 2,3 km/h (1 Bft) S-SW 207 0 min 0,000 mm 0,0 UV-I 0 W/m 6,5 C 10,6 C 4,8 km/h (1 Bft) 99,17 %
16.11.2015 22:50 10,4 C 76 % 1016,6 hPa 0,0 l/m 2,2 km/h (1 Bft) SW 232 0 min 0,000 mm 0,0 UV-I 0 W/m 6,4 C 10,4 C 3,2 km/h (1 Bft) 98,33 %
16.11.2015 22:55 10,3 C 77 % 1016,6 hPa 0,0 l/m 1,8 km/h (1 Bft) W 270 0 min 0,000 mm 0,0 UV-I 0 W/m 6,4 C 10,3 C 4,8 km/h (1 Bft) 97,32 %
16.11.2015 23:00 10,3 C 77 % 1016,7 hPa 0,0 l/m 1,8 km/h (1 Bft) W 261 0 min 0,000 mm 0,0 UV-I 0 W/m 6,4 C 10,3 C 3,2 km/h (1 Bft) 98,31 %
16.11.2015 23:05 10,3 C 77 % 1016,6 hPa 0,0 l/m 2,0 km/h (1 Bft) W 275 0 min 0,000 mm 0,0 UV-I 0 W/m 6,4 C 10,3 C 4,8 km/h (1 Bft) 100,00 %
16.11.2015 23:10 10,4 C 76 % 1016,8 hPa 0,0 l/m 1,2 km/h (1 Bft) W 275 0 min 0,000 mm 0,0 UV-I 0 W/m 6,4 C 10,4 C 3,2 km/h (1 Bft) 98,26 %
16.11.2015 23:15 10,4 C 76 % 1016,9 hPa 0,0 l/m 2,7 km/h (1 Bft) W-SW 251 0 min 0,000 mm 0,0 UV-I 0 W/m 6,4 C 10,4 C 4,8 km/h (1 Bft) 100,00 %
16.11.2015 23:20 10,3 C 76 % 1016,9 hPa 0,0 l/m 1,8 km/h (1 Bft) W-SW 258 0 min 0,000 mm 0,0 UV-I 0 W/m 6,3 C 10,3 C 3,2 km/h (1 Bft) 100,00 %
16.11.2015 23:25 10,2 C 77 % 1017,0 hPa 0,0 l/m 2,0 km/h (1 Bft) W-SW 240 0 min 0,000 mm 0,0 UV-I 0 W/m 6,4 C 10,2 C 4,8 km/h (1 Bft) 100,00 %
16.11.2015 23:30 9,9 C 78 % 1017,0 hPa 0,0 l/m 1,2 km/h (1 Bft) SW 229 0 min 0,000 mm 0,0 UV-I 0 W/m 6,2 C 9,9 C 3,2 km/h (1 Bft) 97,56 %
16.11.2015 23:35 10,2 C 77 % 1016,9 hPa 0,0 l/m 2,0 km/h (1 Bft) W-SW 254 0 min 0,000 mm 0,0 UV-I 0 W/m 6,4 C 10,2 C 3,2 km/h (1 Bft) 100,00 %
16.11.2015 23:40 10,4 C 75 % 1016,9 hPa 0,0 l/m 1,8 km/h (1 Bft) W-SW 254 0 min 0,000 mm 0,0 UV-I 0 W/m 6,2 C 10,4 C 4,8 km/h (1 Bft) 98,26 %
16.11.2015 23:45 10,4 C 75 % 1016,9 hPa 0,0 l/m 2,6 km/h (1 Bft) S-SW 194 0 min 0,000 mm 0,0 UV-I 0 W/m 6,2 C 10,4 C 4,8 km/h (1 Bft) 98,37 %
16.11.2015 23:50 10,2 C 75 % 1016,9 hPa 0,0 l/m 3,0 km/h (1 Bft) S-SW 208 0 min 0,000 mm 0,0 UV-I 0 W/m 6,0 C 10,2 C 4,8 km/h (1 Bft) 98,17 %
16.11.2015 23:55 10,0 C 76 % 1016,9 hPa 0,0 l/m 2,2 km/h (1 Bft) S-SW 204 0 min 0,000 mm 0,0 UV-I 0 W/m 6,0 C 10,0 C 4,8 km/h (1 Bft) 99,17 %
_ Min-Zeit 18:40 00:00 16:05 - 14:50 - - - - - - 23:55 18:35 14:50 19:30
Minimum _ 9,0 C 59 % 1015,0 hPa - 0,0 km/h (0 Bft) - - - - - - 6,0 C 9,1 C 0,0 km/h (0 Bft) 76,42 %
_ Max-Zeit 13:35 18:45 09:05 01:00 03:25 - - 08:45 12:00 11:45 10:30 13:55 14:10 03:25 00:20
Maximum _ 16,5 C 93 % 1017,8 hPa 0,2 l/m 10,4 km/h
W-NW (2 Bft)
- - 5 min 0,178 mm 1,2 UV-I 373 W/m 10,4 C 16,5 C 20,9 km/h
W (4 Bft)
100,00 %
Durchschnitt _ 12,5 C 75 % 1016,3 hPa #0,2 l/m 2,7 km/h (1 Bft) W - #6:15 h #1,168 mm 0,9 UV-I 188 W/m 8,0 C 12,4 C 6,1 km/h (2 Bft) 98,89 %